Wind_Speed
22 23 24 21 19 17 12 12 13 7 18 18 18 23 17 16 18 15 18 16 13 14 12 11 8 7 7 5 5 4 6 8 9 9 12 14 15 16 20 20 19 18 20 23
23 26 20 16 17 16 23 20 20 15 20 18 16 23 18 17 13 10 15 13 11 11 8 8 7 5 3 3 2 4 7 8 8 9 13 13 15 16 18 21 18 19 21 23
27 18 20 22 20 21 20 19 17 13 20 19 15 12 3 10 12 11 12 11 9 8 7 6 6 4 2 2 2 5 7 7 7 10 12 13 14 16 19 19 19 21 22 23
22 27 23 18 20 23 21 19 17 19 14 4 3 6 15 15 10 7 12 8 9 8 7 6 5 3 3 2 4 6 7 7 7 10 11 12 13 15 17 17 18 18 19 19
18 21 28 24 19 15 17 16 10 9 8 12 13 7 1 7 10 13 14 14 11 9 7 6 5 4 3 3 4 5 6 7 7 10 11 12 14 14 15 14 15 15 16 16
25 17 18 25 24 20 15 12 9 7 6 4 14 12 5 8 12 12 15 13 12 10 8 7 6 6 4 4 4 5 6 7 7 10 11 11 13 14 13 13 14 13 14 12
27 23 20 17 20 22 22 15 1 1 2 5 9 12 15 14 13 11 8 11 12 10 9 8 8 8 6 4 5 5 6 7 7 9 11 9 11 13 13 12 13 13 11 10
27 12 26 23 23 15 24 22 6 6 4 3 7 8 7 11 8 9 13 12 12 11 10 10 10 9 7 5 6 6 7 8 8 9 11 10 8 11 12 12 12 11 9 8
21 19 19 27 26 21 24 21 18 1 1 1 6 6 10 10 11 10 9 14 15 12 10 11 11 11 9 8 7 8 8 9 8 9 10 11 9 9 11 11 10 11 7 6
17 7 20 28 27 28 21 22 13 10 3 4 4 11 9 8 14 12 12 14 15 20 15 13 13 13 12 11 9 9 9 9 9 9 9 11 10 8 10 10 9 9 8 4
35 20 9 21 28 33 30 23 12 12 7 4 2 2 8 13 10 7 8 7 7 8 12 14 15 15 15 13 12 12 11 10 9 9 10 11 10 8 8 9 8 8 7 4
38 23 17 20 17 28 31 27 26 10 7 12 2 3 8 11 12 11 9 9 6 2 2 7 13 15 15 15 15 15 14 12 11 9 10 11 11 9 8 8 7 6 5 4
43 17 11 5 15 19 28 33 33 26 13 15 8 5 17 16 13 11 8 5 2 5 4 4 5 11 15 16 16 16 16 15 13 11 10 12 11 9 8 8 7 5 3 3
32 19 20 11 8 17 29 33 35 34 20 16 23 12 16 23 19 18 15 11 11 13 14 12 10 8 11 15 16 16 15 15 14 11 10 11 12 10 9 8 8 6 3 0
25 25 24 16 10 10 11 19 32 39 35 23 24 28 12 17 27 28 24 24 27 26 25 26 24 16 13 11 13 13 14 14 14 12 10 10 11 11 8 8 8 7 5 2
30 13 24 25 18 15 16 16 18 28 35 40 27 28 20 28 26 26 26 28 31 34 32 31 31 28 22 18 14 14 13 13 12 11 9 9 10 10 8 8 8 7 6 4
29 23 15 9 18 14 15 27 23 23 25 28 40 35 34 27 26 28 27 28 29 30 30 28 25 23 23 21 20 18 16 14 10 10 8 8 10 8 9 7 9 8 7 7
29 26 14 7 12 2 13 14 14 23 21 20 21 19 19 22 21 21 24 24 20 17 16 14 13 15 17 18 20 21 20 15 12 11 12 8 9 8 7 9 8 9 7 9
28 27 14 10 15 8 12 16 15 17 20 21 26 26 26 27 28 26 17 14 11 8 6 6 8 11 13 16 18 20 23 21 17 12 13 13 10 7 4 9 9 8 8 9
26 25 21 13 6 7 14 22 24 17 26 23 24 25 24 21 22 17 13 10 8 6 5 4 5 7 5 7 8 9 17 20 21 18 16 16 13 8 4 5 10 8 9 10
28 25 26 20 9 10 15 10 15 18 12 14 16 15 14 15 15 14 13 11 9 7 5 5 5 7 8 12 13 14 15 14 11 16 23 23 19 12 6 4 9 10 11 12
30 23 18 23 21 14 15 17 22 21 14 10 8 15 16 16 15 16 14 12 8 6 5 5 6 5 6 9 10 13 16 19 28 24 10 20 24 20 13 12 18 13 14 15
24 30 25 27 27 10 20 20 19 19 16 15 11 13 16 18 16 14 12 11 10 10 9 7 5 5 5 6 7 10 15 16 19 27 26 18 20 23 22 15 13 18 20 18
25 31 20 24 22 25 17 17 19 24 17 12 11 14 15 16 17 17 16 16 15 14 13 11 10 9 9 9 10 11 11 12 15 21 17 26 19 24 25 23 21 18 22 21
34 30 33 30 23 24 25 22 22 24 25 22 20 18 21 22 22 20 19 18 18 19 19 19 20 20 17 16 17 16 16 16 14 15 20 21 25 22 24 22 22 25 23 23
32 31 29 32 28 25 20 20 21 23 23 22 21 20 21 22 23 23 22 21 22 24 24 23 23 24 24 23 23 20 20 19 19 18 17 21 20 22 29 25 23 28 27 27
Wind_Direction
223 225 230 239 243 227 230 228 240 249 278 278 284 286 292 295 284 274 273 281 282 288 297 305 306 295 286 276 271 287 299 315 324 313 324 325 329 340 337 332 334 341 345 346
224 232 234 233 240 232 238 249 260 275 271 283 292 292 303 283 284 275 261 264 275 284 289 294 293 289 279 257 256 284 298 315 314 315 325 329 334 343 343 337 334 339 347 349
232 240 230 235 235 238 242 246 254 267 274 294 300 314 316 316 304 274 242 270 267 267 274 274 277 279 244 226 262 294 303 316 310 319 329 332 336 347 355 345 335 344 349 352
235 228 232 229 235 236 242 248 252 255 277 280 253 287 276 288 295 287 237 250 264 255 257 260 267 243 212 233 275 300 310 314 309 324 330 329 340 355 2 354 342 347 350 355
216 226 230 229 231 222 223 232 233 238 249 269 268 250 174 290 253 257 240 250 250 243 250 253 245 217 214 244 286 299 311 308 309 327 334 327 347 359 2 360 340 345 353 357
224 224 223 223 223 215 210 221 233 245 243 255 240 224 250 244 244 248 255 248 215 228 239 241 226 215 207 242 277 297 312 315 317 329 337 322 348 358 358 356 344 352 1 4
219 221 222 221 219 218 218 214 124 325 176 226 203 211 214 235 253 263 247 213 210 222 230 229 217 213 211 240 279 297 319 321 321 326 336 323 336 353 357 355 345 358 11 8
207 214 216 218 212 215 201 191 191 196 189 199 206 230 238 237 234 244 247 242 219 225 230 227 224 219 218 238 278 300 324 328 326 323 334 336 318 339 358 1 347 356 10 7
204 216 219 220 214 207 201 201 209 141 136 12 221 215 244 254 241 248 243 241 232 224 234 233 227 223 224 241 272 299 320 328 329 323 332 335 320 323 343 1 355 343 3 8
208 190 210 211 213 216 214 207 200 203 153 224 247 230 221 230 251 250 237 237 238 238 242 233 226 224 228 239 265 293 310 322 330 323 327 333 329 314 323 352 354 350 345 17
215 216 210 209 209 214 207 197 192 194 205 179 185 229 225 221 226 214 208 212 226 229 226 225 223 226 233 241 259 280 298 311 323 326 323 328 328 323 308 329 347 360 346 348
207 212 211 215 213 215 215 212 203 191 197 216 164 215 213 212 199 183 167 130 105 78 237 239 228 231 238 247 257 271 284 297 309 318 320 319 328 323 311 307 334 351 350 338
195 205 169 196 225 217 219 219 218 215 222 208 182 209 198 199 194 200 193 167 95 18 4 324 257 243 244 250 256 267 279 288 297 308 313 314 319 319 312 297 308 319 341 334
198 197 199 188 199 211 217 220 217 213 219 211 215 200 210 212 216 232 246 241 264 292 300 305 303 292 262 256 258 265 273 282 290 295 300 309 309 316 312 296 289 296 294 293
192 207 198 202 205 200 221 230 222 218 220 215 233 228 216 226 238 249 262 269 276 282 285 289 291 279 278 268 257 257 268 278 288 291 292 303 303 309 313 299 282 276 273 236
201 192 207 214 224 231 242 236 227 230 232 232 232 238 233 240 251 259 265 274 281 282 285 283 282 279 275 270 268 257 262 270 284 289 290 293 297 301 308 306 280 275 258 232
211 209 185 200 224 234 253 239 235 239 241 238 237 246 241 241 245 259 269 270 275 278 279 278 275 270 268 265 258 263 255 259 264 279 287 287 290 290 298 302 284 274 252 222
213 210 187 179 167 211 250 242 240 246 247 247 251 250 244 245 249 253 266 268 271 274 286 294 280 262 257 261 253 247 253 248 247 260 273 274 275 280 292 299 287 265 234 222
213 215 191 179 196 241 237 230 222 230 245 246 247 252 249 250 257 264 250 243 252 267 273 276 259 248 240 241 248 244 240 243 245 248 259 266 263 263 284 298 297 247 230 220
198 203 193 193 175 204 262 259 260 243 246 240 240 239 241 236 229 222 215 217 214 221 234 257 281 263 238 200 222 251 249 242 243 240 251 252 255 252 278 317 294 247 233 217
187 198 204 204 217 239 232 198 201 199 239 228 230 224 198 202 209 202 192 193 200 213 236 249 256 261 264 261 260 256 264 277 291 254 240 253 250 241 233 294 306 267 234 225
190 187 201 212 213 231 201 196 206 220 230 246 226 216 208 200 195 185 187 195 207 234 240 259 265 277 274 266 264 257 260 265 260 274 275 245 243 243 218 256 273 289 252 230
200 205 197 200 211 200 218 222 227 229 232 235 221 204 189 194 191 198 212 238 248 238 236 237 252 272 283 293 297 273 257 258 268 257 265 264 250 247 245 222 243 256 259 236
202 200 196 204 207 214 209 213 216 218 221 206 201 204 204 218 222 237 251 249 242 239 245 257 269 277 285 290 298 305 300 289 276 257 275 252 254 239 246 249 234 240 249 235
209 203 208 212 214 210 216 214 219 225 230 236 235 233 234 238 240 237 233 234 243 254 264 274 279 277 286 292 290 292 289 293 290 278 264 273 248 253 238 244 242 234 227 235
213 217 219 231 238 233 234 226 228 227 229 235 239 231 225 220 223 226 235 249 261 267 270 277 283 287 292 296 295 286 277 279 278 281 277 270 264 254 239 229 232 238 228 232
Height
3081 3083 3083 3087 3090 3093 3094 3097 3098 3099 3095 3095 3094 3091 3091 3092 3091 3090 3090 3088 3088 3089 3087 3086 3086 3085 3085 3085 3086 3087 3087 3087 3086 3083 3082 3078 3076 3073 3069 3068 3066 3061 3056 3052
3078 3077 3082 3085 3087 3088 3089 3092 3095 3096 3093 3093 3090 3087 3087 3086 3085 3085 3086 3086 3086 3086 3086 3085 3084 3083 3085 3085 3085 3085 3085 3085 3083 3082 3079 3076 3074 3070 3068 3068 3066 3061 3057 3053
3072 3075 3077 3079 3082 3085 3086 3087 3090 3094 3091 3091 3088 3083 3083 3083 3083 3083 3082 3084 3083 3083 3083 3082 3082 3082 3082 3084 3084 3084 3084 3083 3081 3080 3078 3075 3072 3069 3068 3067 3066 3062 3057 3054
3068 3070 3072 3075 3076 3081 3083 3083 3085 3087 3091 3091 3088 3084 3080 3081 3080 3079 3078 3081 3081 3081 3080 3080 3081 3081 3081 3083 3083 3082 3083 3082 3079 3078 3076 3074 3071 3069 3067 3065 3064 3060 3057 3054
3062 3064 3067 3070 3072 3076 3078 3081 3082 3083 3085 3087 3086 3085 3076 3078 3077 3076 3076 3077 3077 3079 3078 3079 3079 3080 3080 3082 3081 3080 3081 3080 3078 3076 3074 3073 3070 3068 3066 3064 3062 3059 3056 3053
3058 3062 3063 3065 3068 3071 3075 3079 3080 3082 3082 3083 3081 3081 3074 3073 3073 3074 3072 3073 3073 3075 3076 3078 3078 3079 3080 3081 3081 3079 3079 3078 3077 3075 3073 3072 3070 3067 3065 3062 3060 3057 3055 3053
3053 3056 3058 3061 3065 3067 3071 3075 3079 3083 3083 3079 3076 3077 3070 3069 3070 3072 3071 3070 3071 3072 3074 3076 3077 3078 3079 3079 3080 3079 3078 3076 3076 3074 3072 3070 3069 3067 3064 3062 3060 3058 3055 3053
3046 3053 3054 3056 3060 3063 3064 3068 3069 3077 3077 3073 3074 3070 3066 3065 3066 3068 3069 3069 3069 3070 3071 3074 3076 3077 3078 3078 3078 3078 3077 3076 3075 3073 3071 3068 3068 3066 3064 3060 3059 3058 3056 3054
3040 3045 3047 3052 3056 3062 3061 3061 3067 3068 3069 3071 3067 3066 3065 3063 3064 3065 3066 3066 3067 3067 3069 3071 3074 3075 3076 3077 3077 3077 3076 3075 3073 3072 3070 3067 3065 3065 3063 3060 3057 3058 3056 3055
3034 3038 3042 3046 3050 3055 3058 3057 3063 3066 3071 3073 3061 3061 3058 3059 3060 3061 3062 3063 3063 3064 3066 3069 3071 3072 3074 3074 3075 3075 3074 3073 3072 3070 3068 3066 3064 3063 3062 3059 3057 3057 3057 3056
3028 3035 3039 3042 3041 3047 3050 3051 3055 3058 3059 3061 3063 3059 3056 3057 3058 3059 3060 3060 3060 3061 3063 3065 3067 3069 3071 3072 3073 3073 3073 3072 3071 3069 3067 3066 3064 3061 3060 3059 3057 3057 3057 3057
3024 3029 3033 3036 3036 3041 3043 3046 3050 3052 3054 3055 3056 3058 3055 3056 3057 3057 3058 3059 3060 3061 3062 3063 3064 3066 3067 3069 3070 3070 3070 3070 3069 3068 3066 3064 3063 3060 3059 3058 3057 3056 3057 3056
3015 3022 3028 3034 3037 3035 3036 3040 3043 3048 3049 3049 3054 3054 3053 3055 3055 3055 3057 3058 3058 3060 3061 3062 3062 3063 3064 3065 3066 3067 3067 3068 3067 3066 3065 3063 3061 3060 3057 3057 3056 3055 3055 3056
3010 3011 3015 3021 3021 3025 3026 3030 3037 3043 3044 3045 3044 3047 3050 3052 3052 3052 3054 3055 3056 3057 3059 3059 3060 3061 3061 3062 3063 3064 3064 3064 3064 3064 3063 3062 3060 3058 3057 3055 3055 3055 3054 3055
3007 3006 3011 3016 3019 3021 3023 3027 3032 3033 3037 3039 3040 3044 3048 3050 3049 3047 3049 3050 3051 3053 3054 3055 3057 3057 3057 3058 3059 3059 3060 3061 3061 3061 3061 3060 3058 3057 3055 3054 3054 3054 3053 3054
3003 3003 3007 3013 3015 3018 3021 3024 3026 3030 3032 3034 3035 3036 3045 3046 3045 3044 3046 3045 3045 3045 3047 3049 3051 3052 3054 3055 3055 3055 3056 3057 3057 3059 3058 3058 3056 3055 3053 3052 3052 3052 3053 3053
3000 3000 3003 3009 3013 3016 3018 3015 3020 3023 3025 3028 3027 3031 3037 3041 3041 3040 3042 3041 3042 3042 3042 3042 3043 3044 3046 3049 3050 3051 3051 3052 3053 3055 3055 3055 3054 3052 3052 3050 3050 3050 3051 3052
2993 2996 3000 3005 3011 3017 3010 3010 3014 3018 3021 3023 3024 3026 3030 3032 3034 3036 3036 3035 3036 3037 3036 3037 3037 3037 3039 3041 3044 3046 3047 3048 3049 3050 3052 3051 3052 3051 3049 3049 3049 3049 3049 3051
2987 2992 2996 3002 3005 3005 3004 3006 3012 3013 3016 3017 3018 3020 3023 3025 3027 3029 3031 3031 3032 3033 3034 3034 3034 3034 3034 3035 3037 3039 3041 3043 3044 3045 3048 3048 3048 3048 3046 3047 3047 3047 3048 3049
2982 2987 2992 2997 3000 3002 2998 3003 3008 3010 3009 3011 3013 3013 3014 3016 3020 3025 3026 3028 3029 3030 3031 3032 3032 3033 3033 3032 3033 3034 3036 3037 3038 3038 3042 3044 3045 3045 3044 3045 3045 3046 3046 3048
2976 2981 2985 2990 2995 2994 2996 2999 3003 3007 3008 3005 3005 3008 3011 3014 3018 3021 3024 3026 3028 3028 3029 3030 3030 3030 3030 3030 3031 3031 3032 3034 3034 3034 3035 3039 3041 3041 3041 3042 3044 3044 3045 3046
2966 2975 2980 2986 2991 2989 2992 2996 2999 3001 3000 3003 3003 3006 3010 3013 3015 3019 3020 3023 3025 3027 3027 3026 3028 3028 3027 3027 3028 3028 3029 3029 3030 3031 3030 3032 3034 3037 3036 3038 3041 3042 3044 3044
2963 2966 2969 2974 2976 2980 2986 2991 2994 2997 2999 3001 3003 3006 3009 3012 3015 3017 3018 3021 3023 3024 3024 3025 3025 3024 3025 3025 3026 3024 3024 3024 3025 3023 3025 3026 3026 3030 3033 3032 3034 3038 3040 3041
2955 2958 2963 2969 2972 2976 2982 2986 2990 2993 2997 3000 3002 3004 3007 3009 3011 3014 3017 3018 3019 3020 3021 3022 3021 3021 3022 3022 3021 3020 3020 3020 3019 3019 3020 3020 3020 3022 3025 3027 3027 3029 3034 3036
2947 2953 2955 2962 2967 2973 2977 2981 2985 2990 2992 2994 2997 3000 3003 3005 3007 3009 3011 3013 3014 3015 3016 3016 3018 3019 3018 3017 3017 3017 3016 3016 3015 3015 3015 3015 3015 3015 3016 3019 3022 3024 3026 3030
2942 2946 2952 2956 2964 2968 2972 2977 2980 2983 2986 2989 2992 2994 2997 3000 3002 3004 3006 3008 3009 3010 3010 3011 3012 3012 3012 3012 3012 3012 3012 3011 3010 3009 3009 3008 3009 3009 3010 3010 3013 3017 3018 3021